﻿datetime,region,lat,lon,CSR,JPL,GFZ
2014-01-01,Nura,48.53,71.23,0.032170795,0.025718484,0.02102431
2014-02-01,Nura,48.53,71.23,0.025720384,0.010523438,0.013905661
2014-03-01,Nura,48.53,71.23,0.0043677557,0.00501303,0.0066928007
2014-04-01,Nura,48.53,71.23,-0.019800778,-0.012447592,-0.0069992524
2014-05-01,Nura,48.53,71.23,-0.025350826,-0.031631064,-0.024791354
2014-06-01,Nura,48.53,71.23,-0.020330843,-0.02364391,-0.02705237
2014-07-01,Nura,48.53,71.23,-0.012576717,-0.008423502,-0.01800048
2014-08-01,Nura,48.53,71.23,-0.023022668,-0.015947673,-0.025192646
2014-09-01,Nura,48.53,71.23,-0.00013719592,0.0044578686,0.004030523
2014-10-01,Nura,48.53,71.23,0.03036904,0.031868782,0.034555156
2014-11-01,Nura,48.53,71.23,0.024489459,0.032086506,0.021764975
2014-12-01,Nura,48.53,71.23,0.021435067,0.032823034,0.014865501
2015-01-01,Nura,48.53,71.23,-0.0049109794,-0.009383851,0.013550517
2015-02-01,Nura,48.53,71.23,0.002020726,-0.0035224073,0.011277817
2015-03-01,Nura,48.53,71.23,0.029265849,0.02188193,0.02231619
2015-04-01,Nura,48.53,71.23,0.013277445,-0.008656731,0.011418313
2015-05-01,Nura,48.53,71.23,-0.023167364,-0.018774532,-0.02678042
2015-06-01,Nura,48.53,71.23,-0.0496564,-0.02101766,-0.04208519
2015-07-01,Nura,48.53,71.23,-0.025223587,-0.020899935,-0.034739714
2015-08-01,Nura,48.53,71.23,-0.017578436,-0.023520276,-0.01179748
2015-09-01,Nura,48.53,71.23,-0.0005048299,-0.0049703205,0.012535303
2015-10-01,Nura,48.53,71.23,0.033356432,0.016317697,0.021271328
2015-11-01,Nura,48.53,71.23,0.033356432,0.0163177,0.021271328
2015-12-01,Nura,48.53,71.23,0.033677418,0.033475187,0.037445333
2016-01-01,Nura,48.53,71.23,0.020220324,0.03994873,0.040166818
2016-02-01,Nura,48.53,71.23,0.009756174,0.012273256,0.011686739
2016-03-01,Nura,48.53,71.23,-0.0028804615,-0.010862455,-0.014764577
2016-04-01,Nura,48.53,71.23,-0.01883102,-0.017006636,-0.026188333
2016-05-01,Nura,48.53,71.23,-0.023795974,-0.015398901,-0.021906236
2016-06-01,Nura,48.53,71.23,-0.018451083,-0.010584816,-0.0072414987
2016-07-01,Nura,48.53,71.23,-0.00250474,-0.008612774,0.0013842918
2016-08-01,Nura,48.53,71.23,0.00060166884,-0.00079536624,-0.001068769
2016-09-01,Nura,48.53,71.23,-0.0019284189,0.00825635,-0.0017649736
2016-10-01,Nura,48.53,71.23,-0.0019284189,0.00825635,-0.0017649736
2016-11-01,Nura,48.53,71.23,0.029503163,0.027617846,0.039346125
2016-12-01,Nura,48.53,71.23,0.04096301,0.033862464,0.022173293
2017-01-01,Nura,48.53,71.23,0.01116924,0.011734594,0.016789325
2017-02-01,Nura,48.53,71.23,0.0013472028,0.0027235933,0.069689296
2017-03-01,Nura,48.53,71.23,-0.0011618882,-0.0073511526,0.015585624
2017-04-01,Nura,48.53,71.23,-0.018629782,-0.023986265,-0.05534141
2017-05-01,Nura,48.53,71.23,-0.009063039,-0.018783554,-0.04774244
2018-06-01,Nura,48.53,71.23,0.0003093779,-0.0057797506,-0.0038877707
2018-07-01,Nura,48.53,71.23,-0.0013702065,-0.0095235,-0.004645949
2018-08-01,Nura,48.53,71.23,-0.0068791527,-0.008962592,-0.006257223
2018-09-01,Nura,48.53,71.23,-0.0068791527,-0.008962592,-0.006257222
2018-10-01,Nura,48.53,71.23,-0.0016762437,0.0024363054,-0.0019218922
2018-11-01,Nura,48.53,71.23,0.023915045,0.02743854,0.024275783
2018-12-01,Nura,48.53,71.23,0.020543002,0.024570085,0.029449757
2019-01-01,Nura,48.53,71.23,0.007018674,0.01602327,0.022297919
2019-02-01,Nura,48.53,71.23,0.019146707,0.016310122,0.018542666
2019-03-01,Nura,48.53,71.23,0.0069904625,-0.00047127903,-0.006135281
2019-04-01,Nura,48.53,71.23,-0.015223727,-0.017198008,-0.019779038
2019-05-01,Nura,48.53,71.23,-0.028256766,-0.02983566,-0.025007151
2019-06-01,Nura,48.53,71.23,-0.03205766,-0.03029821,-0.030233074
2019-07-01,Nura,48.53,71.23,-0.020433433,-0.02102939,-0.022506269
2019-08-01,Nura,48.53,71.23,-0.011791824,-0.010052473,-0.019989787
2019-09-01,Nura,48.53,71.23,-0.0028826264,-0.0040762853,-0.007149647
2019-10-01,Nura,48.53,71.23,0.01827264,0.01767375,0.02331141
2019-11-01,Nura,48.53,71.23,0.023749925,0.026950138,0.0303491
2019-12-01,Nura,48.53,71.23,0.021737862,0.02319582,0.018920774
2020-01-01,Nura,48.53,71.23,,,